Location: Long Barn
(38.0930°N, 120.1344°W)
Time: 19:37:47
(UTC+00:00)

Hubble Space Telescope - Pass Details

Date: 27 January 2026
Orbit: 478 x 480 km, 28.5° (Epoch: 5 February)

Event Time Altitude Azimuth Distance (km) Brightness Sun altitude
Rises 02:53:19 0° 243° (WSW) 2,512 5.6 -19.0°
Reaches altitude 10° 02:55:58 10° 225° (SW) 1,636 4.0 -19.5°
Maximum altitude 02:58:40 19° 179° (S) 1,193 2.6 -20.0°
Enters shadow 02:59:25 18° 163° (SSE) 1,233 2.5 -20.2°
